Weather in Vyatskoe

Russia / Khabarovsk Krai     48°44′24″N   135°43′15″E
temp.,
°C
wind,
m/s
gust,
m/s
humid.,
%
clouds,
%
prec.,
mm/h
press.,
hPa
HPBL,
m
27 february, sat
sat2701:00−21s349842 0.0 103454
04:00−22s359721 0.0 103464
07:00−22s35970 0.0 103573
10:00−18ssw48922 0.0 1034247
13:00−13ssw468762 0.0 1032389
16:00−10ssw358379 0.0 1028461
19:00−11se1289100 0.0 102621
22:00−11sse2288100 0.0 102333
28 february, sun
sun2801:00−8ssw3986100 0.0 1020304
04:00−7sw61295100 1.4 1017614
07:00−6sw51295100 1.2 1017587
10:00−7wsw71291100 1.5 1016473
13:00−8wsw7118792 0.0 1017492
16:00−7wsw8137696 0.0 1018851
19:00−10wsw71470100 0.0 1021471
22:00−13wsw81671100 0.0 1024498
1 march, mon
mon101:00−17wsw81577100 0.0 1024386
04:00−19wsw8167852 0.0 1026440
07:00−20wsw816790 0.0 1028470
10:00−19wsw814750 0.0 1030662
13:00−15w913640 0.0 10301105
16:00−14wsw913650 0.0 10301164
19:00−17wsw613770 0.0 1031292
22:00−20wsw46850 0.0 1032116
2 march, tue
tue201:00−22sw46890 0.0 103288
04:00−23sw48910 0.0 1032111
07:00−24sw510860 0.0 1033164
10:00−21wsw59780 0.0 1032378
13:00−17wsw68720 0.0 1031706
16:00−15wsw57700 0.0 1030670
19:00−19wsw47860 0.0 1031107
22:00−23sw33840 0.0 103225
3 march, wed
wed301:00−24s23860 0.0 103122
04:00−25ssw23870 0.0 103124
07:00−25s34900 0.0 103048
10:00−21s36870 0.0 1029211
13:00−15s35780 0.0 1026381
16:00−12sse237341 0.0 1022453
19:00−14ese2282100 0.0 102020
22:00−13s2285100 0.0 101933